Location: Spruce Knob
(38.6995°N, 79.5330°W)
Time: 20:53:29
(UTC-04:00)

A-11 Canister half - Pass Details

Date: 01 February 2022
Orbit: 1513 x 1686 km, 47.2° (Epoch: 26 May)

Event Time Altitude Azimuth Distance (km) Brightness Sun altitude
Rises 17:32:29 0° 276° (W) 4,776 12.9 0.5°
Reaches altitude 10° 17:35:46 10° 281° (WNW) 3,768 12.1 -0.1°
Maximum altitude 17:44:58 51° 356° (N) 1,869 9.4 -1.7°
Drops below altitude 10° 17:53:56 10° 71° (ENE) 3,677 10.3 -3.4°
Enters shadow 17:55:46 - 75° (ENE) 4,241 10.6 -3.7°
Sets 17:57:06 0° 77° (ENE) 4,653 - -4.0°
